Location: Saint-Palais-sur-Mer
(45.6429°N, 1.0859°W)
Time: 15:42:58
(UTC+01:00)

S-56A Canister/Altair - Pass Details

Date: 09 February 2026
Orbit: 633 x 2484 km, 38.9° (Epoch: 16 March)

Event Time Altitude Azimuth Distance (km) Brightness Sun altitude
Exits shadow 03:00:44 25° 102° (ESE) 3,166 10.7 -52.3°
Drops below altitude 10° 03:05:55 10° 87° (E) 4,552 11.7 -51.7°
Sets 03:10:20 0° 81° (E) 5,789 12.5 -51.2°
